EFHK

Helsinki/Vantaa

Airport
ICAO code
EFHK
Summary
ICAO Region
EUR
ICAO Territory
Location

Helsinki, Finland,

Elevation
179 ft
Coordinates
60° 19' 2" N , 24° 57' 48" E
KCC
Metar
EFHK 221120Z 13012KT 100V160 9999 FEW039 25/16 Q1014 NOSIG

Description

International airport serving capital city of Finland.

Climatology

Humid Continental climate (Köppen climate classification Dfb) - Variable weather patterns and a large seasonal temperature variance. Summers are often warm and humid with frequent thunderstorms and winters can be very cold with frequent snowfall and persistent snow cover.

Runways

Designator Length Width Surface Rops
15/33 2901 60 ASP Yes/Yes
04L/22R 3060 60 ASP Yes/Yes
04R/22L 3440 60 ASP Yes/Yes

SKYbrary Partners:

Safety knowledge contributed by: